Home > Weather > Racine > Past weeks

Flag for USA Past Weather in Racine, Wisconsin, USA — Yesterday and Last 2 Weeks

Now
64 °F

Passing clouds.


Feels Like: 64 °F
Forecast: 62 / 78 °F
Wind: 3 mph from South

Location: Batten International Airport

Current Time: Jun 30, 2016 at 12:00:31 AM

Latest Report: Jun 29, 2016 at 10:53 PM


Visibility: 10 mi

Pressure: 30.08 "Hg

Humidity: 65%

Dew Point: 52 °F

Location of RacineLocation

Past Weather in Racine — Graph

°F

Racine Temperature Yesterday

Maximum temperature yesterday: 73 °F (at 12:53 PM)
Minimum temperature yesterday: 53 °F (at 4:53 AM)
Average temperature yesterday: 65 °F

High & Low Weather Summary for the Past Weeks

 TemperatureHumidityPressure
High92 °F (Jun 20, 2:53 PM)97% (Jun 15, 3:53 AM)30.26 "Hg (Jun 15, 3:53 AM)
Low53 °F (Jun 29, 4:53 AM)27% (Jun 20, 6:53 PM)29.67 "Hg (Jun 15, 8:53 PM)
Average71 °F65%30.01 "Hg
* Reported Jun 14 9:53 PM — Jun 29 9:53 PM, Racine, Weather by CustomWeather, © 2016

Note: Actual official high and low records may vary slightly from our data, if they occured in-between our weather recording intervals... More about our weather records

Advertising

Racine Weather History for the Previous 24 Hours

Scroll right to see more
 ConditionsComfort  
Time TempWeatherWind HumidityBarometerVisibility
9:53 PM
Wed, Jun 29
63 °FClear.5 mph70%30.08 "Hg10 mi
8:53 PM67 °FSunny.6 mph61%30.06 "Hg10 mi
7:53 PM69 °FSunny.8 mph57%30.05 "Hg10 mi
6:53 PM71 °FSunny.10 mph47%30.06 "Hg10 mi
5:53 PM73 °FSunny.8 mph48%30.08 "Hg10 mi
4:53 PM72 °FScattered clouds.9 mph53%30.09 "Hg10 mi
3:53 PM72 °FSunny.12 mph57%30.10 "Hg10 mi
2:53 PM72 °FSunny.10 mph61%30.11 "Hg10 mi
1:53 PM73 °FSunny.12 mph53%30.12 "Hg10 mi
12:53 PM73 °FSunny.10 mph55%30.13 "Hg10 mi
11:53 AM72 °FSunny.10 mph55%30.13 "Hg10 mi
10:53 AM72 °FSunny.8 mph53%30.14 "Hg10 mi
9:53 AM72 °FSunny.No wind53%30.15 "Hg10 mi
8:53 AM68 °FSunny.6 mph57%30.15 "Hg10 mi
7:53 AM64 °FSunny.5 mph70%30.16 "Hg10 mi
6:53 AM59 °FSunny.7 mph78%30.15 "Hg10 mi
5:53 AM54 °FClear.3 mph86%30.15 "Hg10 mi
4:53 AM53 °FClear.No wind83%30.14 "Hg10 mi
3:53 AM55 °FClear.No wind83%30.16 "Hg10 mi
2:53 AM56 °FClear.6 mph84%30.18 "Hg10 mi
1:53 AM55 °FClear.7 mph87%30.16 "Hg10 mi
12:53 AM55 °FClear.6 mph87%30.14 "Hg10 mi
Weather by CustomWeather, © 2016

See weather overviewHow to use our weather pages